• Join FlightAware (Why Join?)
  • Login
  • US Flag 
09:06PM EDT


 

Airport Tracker/Info


-or-


 

Live Flight TrackerFlight Track Log ✈ AWI3704 ✈ 20-Jul-2013 ✈ KPHL - KALB

Flight Track Log - Related Links

Times and Time Zones

All times are in EDT time to prevent confusion due to time zone crossing. See the AWI3704 flight status page for this flight to view local times or setup timezone preferences in your user account.

Time Position Orientation Groundspeed Altitude Reporting Facility
EDT Latitude Longitude Course Direction KTS MPH feet Rate Location/Type
09:50AM 39.8667 -75.2833 37° Northeast 154 177 700  Level Philadelphia TRACON
09:52AM 39.8167 -74.9130 90° East  Level FlightAware Approximate
09:52AM 39.7833 -75.3333 205° Southwest 220 253 4,000  Level Philadelphia TRACON
09:53AM 39.8039 -74.8026 105° East  Level FlightAware Approximate
09:53AM 39.7500 -75.2500 117° Southeast 271 312 6,500  Level Philadelphia TRACON
09:53AM 39.7500 -75.1833 90° East 306 352 7,600 1,800 Climbing Philadelphia TRACON
09:54AM 39.7873 -74.6961 37° Northeast  Level FlightAware Approximate
09:54AM 39.7667 -75.0667 79° East 315 362 9,600  Level Philadelphia TRACON
09:55AM 39.8558 -74.6276 37° Northeast  Level FlightAware Approximate
09:57AM 39.7864 -74.7933 85° East 356 410 12,100  Level New York Center
09:58AM 39.8428 -74.6694 59° Northeast 377 434 13,300 1,560 Climbing New York Center
09:59AM 39.9289 -74.5850 37° Northeast 368 423 15,300 1,740 Climbing New York Center
10:00AM 40.0150 -74.5003 37° Northeast 368 423 16,800 1,380 Climbing New York Center
10:01AM 40.1011 -74.4153 37° Northeast 387 445 18,100 1,140 Climbing New York Center
10:02AM 40.1892 -74.3250 38° Northeast 393 452 19,100 960 Climbing New York Center
10:03AM 40.2794 -74.2369 37° Northeast 398 458 20,100 960 Climbing New York Center
10:04AM 40.3878 -74.2342 North 367 422 21,100 1,020 Climbing New York Center
10:05AM 40.5808 -74.2708 352° North 422 486 22,900 960 Climbing Boston Center
10:06AM 40.6575 -74.1636 47° Northeast 370 426 23,900 540 Climbing Boston Center
10:07AM 40.7222 -74.0175 60° Northeast 376 433 24,000  Climbing Boston Center
10:09AM 40.7864 -73.8792 58° Northeast 402 463 23,900  Descending Boston Center
10:10AM 40.8922 -73.7442 44° Northeast 427 491 24,000 -180 Climbing Boston Center
10:11AM 40.9747 -73.6497 41° Northeast 432 497 23,600 -540 Descending Boston Center
10:12AM 41.0839 -73.5747 27° Northeast 432 497 23,000 -600 Descending Boston Center
10:13AM 41.1908 -73.5019 27° Northeast 432 497 22,400 -900 Descending Boston Center
10:14AM 41.2997 -73.4319 26° Northeast 432 497 21,300 -1,740 Descending Boston Center
10:15AM 41.4206 -73.4506 353° North 396 456 19,000 -1,200 Descending Boston Center
10:16AM 41.5267 -73.4606 356° North 386 444 19,000 -600 Level Boston Center
10:17AM 41.6328 -73.4733 355° North 386 444 17,900 -960 Descending Boston Center
10:18AM 41.7392 -73.4833 356° North 386 444 17,100 -780 Descending Boston Center
10:19AM 41.8472 -73.4964 355° North 386 444 16,400 -840 Descending Boston Center
10:20AM 41.9494 -73.5092 355° North 380 437 15,500 -1,140 Descending Boston Center
10:21AM 42.0514 -73.5192 356° North 369 425 14,200 -1,380 Descending Boston Center
10:21AM 42.1014 -73.5258 354° North 357 411 13,500 -1,200 Descending Boston Center
10:22AM 42.1472 -73.5239 North 364 419 13,000 -1,200 Descending Boston Center
10:22AM 42.2017 -73.5106 10° North 360 414 12,300 -1,200 Descending Boston Center
10:23AM 42.2494 -73.5144 357° North 359 413 11,800 -1,200 Descending Boston Center
10:23AM 42.3014 -73.5236 353° North 360 414 11,100 -1,020 Descending Boston Center
10:24AM 42.3886 -73.5478 348° North 321 369 10,300 -1,140 Descending Boston Center
10:25AM 42.4367 -73.5569 352° North 309 356 9,200 -1,920 Descending Boston Center
10:26AM 42.5531 -73.5872 349° North 284 327 6,400 -2,040 Descending Boston Center
10:27AM 42.6300 -73.6028 352° North 275 316 4,500 -1,920 Descending Boston Center